TimeCDT,TemperatureF,Dew PointF,Humidity,Sea Level PressureIn,VisibilityMPH,Wind Direction,Wind SpeedMPH,Gust SpeedMPH,PrecipitationIn,Events,Conditions,WindDirDegrees,DateUTC
12:53 AM,77.0,66.0,69,29.95,10.0,SSE,9.2,-,N/A,,Mostly Cloudy,150,2013-06-20 05:53:00
1:53 AM,75.9,66.0,71,29.94,10.0,SE,9.2,-,N/A,,Overcast,140,2013-06-20 06:53:00
2:53 AM,75.0,66.0,73,29.93,10.0,SE,9.2,-,N/A,,Scattered Clouds,140,2013-06-20 07:53:00
3:53 AM,75.0,66.0,73,29.93,10.0,SSE,8.1,-,N/A,,Mostly Cloudy,150,2013-06-20 08:53:00
4:53 AM,75.0,66.0,73,29.94,10.0,SE,10.4,-,N/A,,Clear,140,2013-06-20 09:53:00
5:53 AM,73.9,66.0,76,29.94,10.0,SE,9.2,-,N/A,,Scattered Clouds,140,2013-06-20 10:53:00
6:53 AM,73.9,66.0,76,29.96,10.0,SE,9.2,-,N/A,,Partly Cloudy,140,2013-06-20 11:53:00
7:53 AM,77.0,68.0,74,29.98,9.0,SSE,11.5,20.7,N/A,,Clear,150,2013-06-20 12:53:00
8:53 AM,80.1,69.1,69,29.98,9.0,SSE,16.1,-,N/A,,Partly Cloudy,150,2013-06-20 13:53:00
9:53 AM,82.0,70.0,67,29.99,9.0,South,17.3,-,N/A,,Scattered Clouds,170,2013-06-20 14:53:00
10:53 AM,84.9,72.0,65,29.98,9.0,South,15.0,24.2,N/A,,Scattered Clouds,170,2013-06-20 15:53:00
11:53 AM,87.1,73.0,63,29.97,9.0,SSE,12.7,21.9,N/A,,Scattered Clouds,160,2013-06-20 16:53:00
12:53 PM,89.1,73.9,61,29.96,10.0,South,16.1,24.2,N/A,,Partly Cloudy,170,2013-06-20 17:53:00
1:53 PM,91.0,73.9,57,29.95,10.0,South,17.3,25.3,N/A,,Scattered Clouds,180,2013-06-20 18:53:00
2:53 PM,91.9,73.0,54,29.93,10.0,SSE,15.0,-,N/A,,Scattered Clouds,160,2013-06-20 19:53:00
3:53 PM,91.9,73.0,54,29.92,10.0,SSE,20.7,26.5,N/A,,Mostly Cloudy,160,2013-06-20 20:53:00
4:53 PM,91.9,73.0,54,29.90,10.0,SSE,15.0,26.5,N/A,,Scattered Clouds,160,2013-06-20 21:53:00
5:53 PM,91.9,71.1,50,29.88,10.0,SSE,19.6,28.8,N/A,,Scattered Clouds,150,2013-06-20 22:53:00
6:53 PM,91.0,72.0,53,29.88,10.0,SSE,19.6,28.8,N/A,,Partly Cloudy,150,2013-06-20 23:53:00
7:53 PM,89.1,72.0,57,29.89,10.0,SSE,18.4,25.3,N/A,,Partly Cloudy,160,2013-06-21 00:53:00
8:53 PM,87.1,72.0,61,29.91,10.0,SSE,15.0,-,N/A,,Partly Cloudy,160,2013-06-21 01:53:00
9:53 PM,84.9,71.1,63,29.92,10.0,South,15.0,23.0,N/A,,Partly Cloudy,170,2013-06-21 02:53:00
10:53 PM,84.0,72.0,67,29.95,10.0,SSE,11.5,-,N/A,,Clear,160,2013-06-21 03:53:00
11:53 PM,82.0,72.0,71,29.95,10.0,SSE,11.5,-,N/A,,Clear,160,2013-06-21 04:53:00